SCP
0 0 0 0 0 0 0 0 0 0 0 0 0 0 0 0 0 0 0 0 0 0 0 0 -0 -0 -0 -0 -0 -0 -0 -0 0 0 0 0 0 0 0 0 0 0 0 0 0 0 0 0 0
0 0 0 0 0 0 0 0 0 0 0 0 0 0 0 0 0 0 0 0 0 0 0 0 0 0 -0 -0 -0 -0 -0 0 0 0 0 0 0 0 0 0 0 0 0 0 0 0 0 0 0
0 0 0 0 0 0 0 0 0 0 0 0 0 0 0 0 0 0 0 0 0 0 0 0 0 0 0 0 0 0 0 0 0 0 0 0 0 0 0 0 0 0 0 0 0 0 0 0 0
0 0 0 0 0 0 0 0 0 0 0 0 0 0 0 0 0 0 0 0 0 0 0 0 0 0 0 0 0 0 0 0 0 0 0 0 0 0 0 0 0 0 0 0 0 0 0 0 0
0 0 0 0 0 0 0 0 0 0 0 0 0 0 0 0 0 0 0 0 0 0 0 0 0 0 0 0 0 0 0 0 0 0 0 0 0 0 0 0 0 0 0 0 0 0 0 0 0
0 0 0 0 0 0 0 0 0 0 0 0 0 0 0 0 0 0 0 0 0 0 0 0 0 0 0 0 0 0 0 0 0 0 0 0 0 0 0 0 0 0 0 0 0 0 0 0 0
0 0 0 0 0 0 0 0 0 0 0 0 0 0 0 0 0 0 0 0 0 0 0 0 0 0 0 0 0 0 0 0 0 0 0 0 0 0 0 0 0 0 0 0 0 0 0 0 0
0 0 0 0 0 0 0 0 0 0 0 0 0 0 0 0 0 0 0 0 0 0 0 0 0 0 0 0 0 0 0 0 0 0 0 0 0 0 0 0 0 0 0 0 0 0 0 0 0
0 0 0 0 0 0 0 0 0 0 0 0 0 0 0 0 0 0 0 0 0 0 0 0 0 0 0 0 0 0 0 0 0 0 0 0 0 0 0 0 0 0 0 0 0 0 0 0 0
0 0 0 0 0 0 0 0 0 0 0 0 0 0 0 0 0 0 0 0 0 0 0 0 0 0 0 0 0 0 0 0 0 0 0 0 0 0 0 0 0 0 0 0 0 0 0 0 0
0 0 0 0 0 0 0 0 0 0 0 0 0 0 0 0 0 0 0 0 0 0 0 0 0 0 0 0 0 0 0 0 0 0 0 0 0 0 0 0 0 0 0 0 0 0 0 0 0
0 0 0 0 0 0 0 0 0 0 0 0 0 0 0 0 0 0 0 0 0 0 0 0 0 0 0 0 0 0 0 0 0 0 0 0 0 0 0 0 0 0 0 0 0 0 0 0 0
0 0 0 0 0 0 0 0 0 0 0 0 0 0 0 0 0 0 0 0 0 0 0 0 0 0 0 0 0 0 0 0 0 0 0 0 0 0 0 0 0 0 0 0 0 0 0 0 0
0 0 0 0 0 0 0 0 0 0 0 0 0 0 0 0 0 0 0 0 0 0 0 0 0 0 0 0 0 0 0 0 0 0 0 0 0 0 0 0 0 0 0 0 0 0 0 0 0
0 0 0 0 0 0 0 0 0 0 0 0 0 0 0 0 0 0 0 0 0 0 0 0 0 0 0 0 0 0 0 0 0 0 0 0 0 0 0 0 0 0 0 0 0 0 0 0 0
0 0 0 0 0 0 0 0 0 0 0 0 0 0 0 0 0 0 0 0 0 0 0 0 0 0 0 0 0 0 0 0 0 0 0 0 0 0 0 0 0 0 0 0 0 0 0 0 0
0 0 0 0 0 0 0 0 0 0 0 0 0 0 0 0 0 0 0 0 0 0 0 0 0 0 0 0 0 0 0 0 0 0 0 0 0 0 0 0 0 0 0 0 0 0 0 0 0
0 0 0 0 0 0 0 0 0 0 0 0 0 0 0 0 0 0 0 0 0 0 0 0 0 0 0 0 0 0 0 0 0 0 0 0 0 0 0 0 0 0 0 0 0 0 0 0 0
0 0 0 0 0 0 0 0 0 0 0 0 0 0 0 0 0 0 0 0 0 0 0 0 0 0 0 0 0 0 0 0 0 0 0 0 0 0 0 0 0 0 0 0 0 0 0 0 0
0 0 0 0 0 0 0 0 0 0 0 0 0 0 0 0 0 0 0 0 0 0 0 0 0 0 0 0 0 0 0 0 0 0 0 0 0 0 0 0 0 0 0 0 0 0 -0 -0 -0
0 0 0 0 0 0 0 0 0 0 0 0 0 0 0 0 0 0 0 0 0 0 0 0 0 0 0 0 0 0 0 0 0 0 0 0 0 0 0 0 0 0 0 -0 0 -0 0 -0 -0
0 0 0 0 0 0 0 0 0 0 0 0 0 0 0 0 0 0 0 0 0 0 0 0 0 0 0 0 0 0 0 0 0 0 0 0 0 0 0 0 0 0 0 0 0 0 0 0 0
0 0 0 0 0 0 0 0 0 0 0 0 0 0 0 0 0 0 0 0 0 0 0 0 0 0 0 0 0 0 0 0 -0 -0 -0 -0 -0 0 0 0 0 0 0 0 0 0 0 0 0
0 0 0 0 0 0 0 0 0 -0 0 0 0 0 0 0 0 0 0 0 0 0 0 0 0 0 0 0 0 0 0 0 -0 -0 -0 -0 -0 -0 0 0 0 0 0 0 0 0 0 0 0
0 0 0 0 0 0 0 0 0 0 0 0 0 0 0 0 0 0 0 0 0 0 0 0 0 0 0 0 0 0 0 0 0 0 0 0 0 0 0 0 0 0 0 0 0 0 0 0 0
0 0 0 0 0 0 0 0 0 0 0 0 0 0 0 0 0 0 0 0 0 0 0 0 0 0 0 0 0 0 0 0 0 0 0 0 0 0 0 0 0 0 0 0 0 0 0 0 0
0 0 0 0 0 0 0 0 0 0 0 -0 -0 0 0 0 0 0 0 0 0 0 0 0 0 0 0 0 0 0 0 0 0 0 0 0 0 0 0 0 0 0 0 0 0 0 0 0 0
0 0 0 0 0 0 0 0 0 0 0 0 0 0 0 0 0 0 0 0 0 0 0 0 0 0 0 0 0 0 0 0 0 0 0 0 0 0 0 0 0 0 0 0 0 0 0 0 0
0 0 0 0 0 0 0 0 0 0 0 0 0 0 -0 -0 0 0 0 0 0 0 0 0 0 0 0 0 0 0 0 0 0 0 0 0 0 0 0 0 0 0 0 0 0 0 0 0 0
0 0 0 0 0 0 0 0 0 0 0 0 0 0 -0 -0 0 0 0 0 0 0 0 0 0 0 0 0 0 0 0 0 0 0 0 0 0 0 0 0 0 0 0 0 0 0 0 0 0
Wind_Speed_500mb
11 11 9 1 8 6 7 8 1 7 10 5 5 2 13 20 7 4 16 5 7 9 8 9 6 4 3 4 8 8 10 8 4 2 1 3 6 8 10 12 13 14 14 14 15 17 14 14 13
10 10 4 4 7 11 8 5 9 5 16 22 16 11 12 11 12 10 10 2 1 5 9 9 6 5 8 13 13 10 10 14 11 8 8 8 6 5 8 10 12 13 15 16 15 16 16 14 16
10 6 4 3 3 9 4 5 16 24 10 5 9 15 9 10 10 11 7 3 0 4 7 8 7 8 9 10 13 12 16 13 12 16 17 16 16 15 16 16 16 15 15 15 15 15 14 15 14
4 2 1 11 12 3 5 9 24 22 11 10 15 16 13 7 9 10 6 1 3 7 10 11 12 13 14 14 15 15 15 19 20 20 19 22 23 24 23 22 26 24 22 19 17 13 17 15 16
3 1 5 7 7 5 6 19 18 8 8 11 3 9 10 8 9 6 4 2 4 8 10 14 17 19 21 23 24 23 22 22 23 24 27 27 27 27 28 30 31 30 27 27 26 21 20 19 20
6 3 8 16 10 10 9 10 8 6 8 10 11 11 8 10 8 4 2 3 5 8 11 15 18 21 24 26 28 29 28 28 28 28 30 33 32 32 29 32 33 33 33 33 32 30 30 26 22
8 8 17 17 17 15 12 12 4 4 6 8 7 9 7 4 8 6 2 3 7 10 13 15 19 22 25 28 31 32 32 32 31 30 31 33 35 35 35 35 39 37 36 39 39 36 34 33 32
4 8 14 15 20 15 16 9 12 6 5 4 7 6 11 11 12 8 2 3 7 10 13 15 17 20 22 25 28 30 32 33 33 32 30 30 32 34 33 35 38 39 37 35 35 40 37 34 34
7 10 17 15 19 12 13 8 8 9 11 4 5 5 12 18 13 8 2 4 10 13 15 16 18 20 21 22 23 24 25 26 27 29 28 27 29 30 33 36 39 41 40 38 36 34 35 38 38
3 8 10 7 5 12 16 5 14 8 6 4 7 15 20 20 14 10 8 4 8 10 12 14 16 17 18 17 18 17 17 17 18 20 22 23 24 24 26 29 32 36 38 38 39 38 36 34 36
7 1 3 8 7 4 15 22 11 10 11 17 22 27 22 15 9 7 5 6 6 6 10 12 14 15 15 15 16 15 15 14 14 14 14 14 16 19 21 23 25 27 28 31 36 39 38 43 44
6 13 8 7 6 5 12 25 13 12 6 8 24 27 22 14 10 6 4 4 3 2 4 5 7 9 11 13 15 17 18 19 20 21 19 17 15 14 15 16 19 21 23 25 26 28 33 37 36
7 8 12 11 12 13 13 7 7 10 14 22 26 22 20 17 12 8 6 3 2 1 5 7 10 11 13 15 18 19 21 23 25 25 26 25 24 24 23 21 20 20 20 21 22 25 28 30 33
10 19 14 11 11 8 4 5 1 14 22 23 24 22 18 17 13 10 8 6 4 4 6 10 12 15 17 18 20 22 23 25 25 26 28 27 27 28 28 27 27 26 26 27 26 26 25 24 27
12 10 10 10 5 5 2 9 13 21 30 26 24 22 19 16 13 11 11 13 13 12 12 13 16 19 20 23 25 27 28 28 30 32 32 32 32 32 31 30 30 30 29 28 27 26 25 25 25
4 3 6 5 3 2 4 11 9 27 33 29 25 22 21 18 16 18 19 19 18 17 17 17 18 18 20 23 24 26 27 28 31 32 34 35 36 36 37 38 38 39 37 36 35 34 32 31 29
2 4 6 4 7 3 9 9 5 25 29 30 30 28 24 23 24 23 23 22 20 19 17 16 16 16 17 20 21 22 23 24 27 28 30 31 33 34 36 37 39 40 41 43 44 45 44 42 38
8 6 4 8 7 3 12 30 10 25 33 39 37 34 32 31 31 30 27 25 22 20 17 15 14 14 15 15 17 18 19 22 23 25 27 28 30 32 33 34 35 36 38 39 40 42 44 48 47
10 5 4 2 4 7 15 27 30 29 40 44 45 44 44 39 34 36 33 29 25 22 19 16 13 12 13 12 13 16 18 21 22 23 24 26 28 30 33 34 36 38 40 43 45 46 48 49 52
2 2 7 2 0 6 15 34 39 39 56 60 55 56 52 42 39 43 40 35 31 27 23 19 16 14 13 12 13 16 18 20 21 23 24 27 30 32 35 37 39 41 43 44 47 50 52 53 58
3 7 3 8 7 3 20 19 10 10 47 42 62 57 54 53 49 49 49 42 36 31 26 22 18 16 13 12 14 16 17 20 21 22 25 28 30 32 34 36 38 40 43 46 49 50 51 49 49
5 3 2 4 7 8 9 16 16 5 20 39 46 57 59 55 49 47 51 48 41 35 31 26 21 17 14 11 12 13 14 16 18 22 25 26 28 30 32 34 36 39 40 41 44 45 46 45 45
7 5 6 2 3 9 2 9 5 4 18 20 37 53 60 60 57 56 56 50 43 40 34 29 25 20 15 11 9 10 14 17 19 21 23 24 26 28 31 33 35 36 39 40 40 41 41 40 39
16 7 5 4 1 6 2 7 11 5 6 4 6 27 50 60 59 57 56 53 49 43 40 35 30 24 19 12 7 7 11 15 17 18 20 23 26 28 31 33 34 36 37 38 38 38 37 37 35
4 5 1 3 4 5 1 9 23 21 20 15 22 17 31 53 59 57 57 60 55 51 45 40 34 28 23 15 8 4 8 13 15 17 18 21 23 26 29 31 33 35 36 38 38 38 37 36 35
5 4 4 7 5 6 3 13 8 4 12 18 14 14 16 41 54 59 65 63 60 53 47 42 37 33 27 19 12 4 5 12 16 18 19 21 23 26 28 31 32 33 34 35 36 36 37 35 35
8 7 4 11 4 5 8 12 21 15 11 19 14 12 10 25 47 56 66 65 60 54 49 43 38 34 30 22 14 7 5 11 17 21 22 22 23 25 28 30 32 33 34 35 35 36 37 36 36
2 9 5 1 7 10 10 12 17 11 11 18 21 13 10 15 36 54 66 68 60 53 47 43 39 36 32 28 20 13 9 12 17 22 25 25 26 27 29 31 32 33 34 35 36 37 37 36 36
9 7 1 4 5 7 9 9 8 9 5 9 16 14 8 13 26 57 67 71 63 55 50 45 42 39 36 32 26 19 15 14 19 23 27 29 29 29 30 32 33 34 36 36 37 37 38 38 37
5 7 15 9 10 3 7 19 9 11 15 10 10 17 14 13 20 38 66 71 69 60 53 50 42 37 32 33 33 27 22 20 21 25 30 31 31 31 31 34 35 36 36 36 37 38 38 38 38
Wind_Direction_500mb
327 327 333 319 226 241 192 134 0 126 131 31 138 152 107 47 23 65 149 80 15 356 0 13 25 46 334 324 327 258 246 227 210 231 296 297 300 299 300 296 285 277 274 274 286 302 312 280 281
327 329 326 279 248 223 169 130 167 61 114 110 84 82 56 85 73 108 149 134 70 0 1 355 342 325 304 287 277 273 282 253 251 269 276 285 273 268 274 283 291 290 289 286 272 271 291 293 274
319 331 261 249 200 246 219 130 129 118 117 124 105 66 74 89 85 128 170 173 343 347 350 351 346 336 336 331 316 302 265 267 279 259 262 268 270 270 269 271 278 284 287 287 291 283 276 289 272
306 351 170 249 236 84 330 133 134 131 91 65 108 77 86 101 150 142 148 91 349 333 330 325 319 314 312 306 305 306 301 271 263 271 273 268 267 269 271 274 280 279 274 279 277 277 286 273 276
217 231 190 231 175 88 69 140 136 117 106 92 35 120 101 124 138 117 85 33 346 332 325 318 314 309 305 302 299 295 291 287 279 269 265 268 271 269 269 270 270 274 279 277 273 261 263 265 264
182 228 214 215 167 131 115 155 176 87 93 98 93 109 115 147 139 132 84 23 357 344 332 326 318 311 305 299 296 293 290 284 280 276 272 270 265 268 273 274 277 278 278 280 278 272 264 263 261
221 217 234 238 190 166 141 128 159 91 110 69 108 115 141 114 162 152 104 12 353 346 339 331 326 323 316 307 301 296 293 289 285 279 275 275 273 270 267 272 277 282 285 283 276 273 269 266 263
205 230 224 228 204 187 134 96 102 78 111 118 132 158 163 209 169 172 129 329 336 331 331 330 329 326 322 317 310 305 298 293 289 286 282 278 274 274 271 269 273 277 283 286 289 276 270 269 268
153 227 234 224 215 154 144 150 122 119 119 137 180 139 167 177 163 162 188 308 318 324 330 336 336 335 332 328 322 316 309 301 294 291 288 282 280 276 272 271 271 274 276 280 285 288 282 271 270
221 230 237 23 82 140 132 106 144 148 154 110 134 171 157 164 168 183 184 241 286 310 323 333 339 342 344 343 341 337 329 319 310 304 295 290 288 286 284 283 279 274 274 278 277 276 280 280 278
29 291 55 39 30 128 165 132 151 162 209 210 212 167 164 151 172 199 199 228 270 306 329 336 342 349 353 358 6 10 14 12 1 349 338 326 311 300 291 287 283 284 284 279 270 270 274 275 278
119 59 53 36 34 124 139 132 131 174 167 196 156 159 156 162 184 208 250 272 290 318 335 1 15 19 23 30 35 37 38 39 38 37 32 26 13 360 342 328 317 308 302 297 293 287 279 273 275
80 106 65 77 76 84 126 98 146 162 158 158 165 169 174 185 197 213 217 238 255 56 73 70 66 61 56 52 55 53 52 50 50 47 46 43 41 38 33 25 14 3 352 339 322 307 297 292 286
101 105 103 60 61 72 86 107 180 187 171 171 177 180 175 181 189 185 171 161 147 119 100 86 80 74 67 65 62 59 56 53 50 47 45 42 40 40 39 38 35 30 23 16 7 356 345 331 312
130 108 119 56 33 84 120 198 223 174 172 175 179 182 186 191 184 181 173 166 156 143 121 107 94 83 79 75 70 67 63 60 58 55 52 50 48 46 42 38 34 28 22 16 11 7 3 357 348
113 159 201 77 349 92 221 249 160 174 179 190 194 195 197 198 193 187 177 165 152 137 128 119 107 95 83 76 71 67 63 59 56 53 50 47 45 44 43 41 39 36 33 29 27 22 17 9 357
94 243 230 175 40 319 233 278 131 184 197 207 207 207 207 207 203 196 183 171 161 149 137 124 114 103 91 80 73 68 63 60 56 52 48 44 41 39 37 36 34 31 30 27 24 22 20 20 19
168 193 211 263 32 268 248 262 224 202 210 219 216 212 212 213 207 201 191 181 171 161 147 135 123 112 98 85 76 70 63 59 55 50 46 40 37 34 33 31 30 29 28 27 26 23 21 18 17
107 138 253 190 40 291 262 271 266 226 221 226 222 217 216 215 206 202 197 189 182 173 163 150 134 121 103 91 78 68 60 56 50 47 41 36 33 30 27 25 24 23 22 21 20 20 18 15 17
110 228 254 193 15 268 296 280 269 231 229 225 222 220 216 211 206 206 202 196 190 184 177 166 154 139 123 109 89 69 57 50 45 42 37 33 29 25 23 21 21 20 19 18 17 18 19 18 17
36 290 287 305 314 230 300 268 258 235 236 234 230 228 220 211 206 207 205 201 196 191 185 177 168 155 139 115 84 65 52 45 42 38 33 30 26 23 21 19 19 18 17 17 16 16 17 18 18
172 70 350 318 297 307 343 297 281 243 246 230 235 224 219 211 209 208 206 203 200 196 192 187 180 170 151 121 92 74 62 51 44 38 33 29 25 23 20 18 17 16 16 15 15 13 13 13 14
95 139 120 117 273 306 128 266 257 253 277 257 235 227 220 212 207 206 209 207 202 201 198 195 190 182 168 143 109 71 51 42 37 34 29 24 22 19 16 14 13 13 14 13 12 12 12 11 11
137 123 105 102 312 248 46 276 294 224 230 298 331 236 223 212 206 208 210 208 205 205 203 202 198 192 184 168 137 83 48 35 31 25 20 16 13 11 10 9 9 9 8 8 7 7 6 6 6
206 190 254 252 210 277 69 247 268 276 293 293 299 284 229 214 205 203 203 206 206 208 207 205 202 199 195 187 173 115 45 29 20 12 8 7 4 3 2 3 3 3 2 2 1 0 359 359 359
167 258 211 243 255 327 127 245 256 66 325 300 291 285 245 213 207 204 207 209 210 209 209 207 206 204 202 198 194 182 25 13 5 359 354 351 351 352 353 354 355 355 353 353 352 352 351 350 350
151 224 20 106 88 270 245 265 272 99 43 18 337 285 266 218 210 206 208 210 212 210 210 209 207 208 207 207 211 226 320 348 349 344 337 334 334 337 340 343 344 344 344 344 343 343 342 342 342
255 137 137 246 219 241 239 272 255 336 12 0 9 335 285 241 212 209 210 211 212 211 211 209 210 212 212 216 222 237 275 317 331 333 325 318 317 321 327 332 334 335 335 335 335 335 335 334 334
156 189 127 324 256 250 284 252 187 224 275 328 345 334 314 264 234 214 211 212 211 209 209 209 211 214 217 222 231 244 264 292 313 322 319 309 303 306 314 321 323 326 327 328 328 329 328 327 328
320 207 190 220 199 253 340 270 176 249 270 257 325 355 344 307 262 230 215 212 211 208 209 210 211 217 222 228 235 245 258 275 298 312 315 305 295 294 302 311 314 318 320 321 321 322 321 320 321
Wind_Speed_850mb
11 11 9 1 8 6 7 8 1 7 10 5 5 2 13 20 7 4 16 5 7 9 8 9 6 4 3 4 8 8 10 8 4 2 1 3 6 8 10 12 13 14 14 14 15 17 14 14 13
10 10 4 4 7 11 8 5 9 5 16 22 16 11 12 11 12 10 10 2 1 5 9 9 6 5 8 13 13 10 10 14 11 8 8 8 6 5 8 10 12 13 15 16 15 16 16 14 16
10 6 4 3 3 9 4 5 16 24 10 5 9 15 9 10 10 11 7 3 0 4 7 8 7 8 9 10 13 12 16 13 12 16 17 16 16 15 16 16 16 15 15 15 15 15 14 15 14
4 2 1 11 12 3 5 9 24 22 11 10 15 16 13 7 9 10 6 1 3 7 10 11 12 13 14 14 15 15 15 19 20 20 19 22 23 24 23 22 26 24 22 19 17 13 17 15 16
3 1 5 7 7 5 6 19 18 8 8 11 3 9 10 8 9 6 4 2 4 8 10 14 17 19 21 23 24 23 22 22 23 24 27 27 27 27 28 30 31 30 27 27 26 21 20 19 20
6 3 8 16 10 10 9 10 8 6 8 10 11 11 8 10 8 4 2 3 5 8 11 15 18 21 24 26 28 29 28 28 28 28 30 33 32 32 29 32 33 33 33 33 32 30 30 26 22
8 8 17 17 17 15 12 12 4 4 6 8 7 9 7 4 8 6 2 3 7 10 13 15 19 22 25 28 31 32 32 32 31 30 31 33 35 35 35 35 39 37 36 39 39 36 34 33 32
4 8 14 15 20 15 16 9 12 6 5 4 7 6 11 11 12 8 2 3 7 10 13 15 17 20 22 25 28 30 32 33 33 32 30 30 32 34 33 35 38 39 37 35 35 40 37 34 34
7 10 17 15 19 12 13 8 8 9 11 4 5 5 12 18 13 8 2 4 10 13 15 16 18 20 21 22 23 24 25 26 27 29 28 27 29 30 33 36 39 41 40 38 36 34 35 38 38
3 8 10 7 5 12 16 5 14 8 6 4 7 15 20 20 14 10 8 4 8 10 12 14 16 17 18 17 18 17 17 17 18 20 22 23 24 24 26 29 32 36 38 38 39 38 36 34 36
7 1 3 8 7 4 15 22 11 10 11 17 22 27 22 15 9 7 5 6 6 6 10 12 14 15 15 15 16 15 15 14 14 14 14 14 16 19 21 23 25 27 28 31 36 39 38 43 44
6 13 8 7 6 5 12 25 13 12 6 8 24 27 22 14 10 6 4 4 3 2 4 5 7 9 11 13 15 17 18 19 20 21 19 17 15 14 15 16 19 21 23 25 26 28 33 37 36
7 8 12 11 12 13 13 7 7 10 14 22 26 22 20 17 12 8 6 3 2 1 5 7 10 11 13 15 18 19 21 23 25 25 26 25 24 24 23 21 20 20 20 21 22 25 28 30 33
10 19 14 11 11 8 4 5 1 14 22 23 24 22 18 17 13 10 8 6 4 4 6 10 12 15 17 18 20 22 23 25 25 26 28 27 27 28 28 27 27 26 26 27 26 26 25 24 27
12 10 10 10 5 5 2 9 13 21 30 26 24 22 19 16 13 11 11 13 13 12 12 13 16 19 20 23 25 27 28 28 30 32 32 32 32 32 31 30 30 30 29 28 27 26 25 25 25
4 3 6 5 3 2 4 11 9 27 33 29 25 22 21 18 16 18 19 19 18 17 17 17 18 18 20 23 24 26 27 28 31 32 34 35 36 36 37 38 38 39 37 36 35 34 32 31 29
2 4 6 4 7 3 9 9 5 25 29 30 30 28 24 23 24 23 23 22 20 19 17 16 16 16 17 20 21 22 23 24 27 28 30 31 33 34 36 37 39 40 41 43 44 45 44 42 38
8 6 4 8 7 3 12 30 10 25 33 39 37 34 32 31 31 30 27 25 22 20 17 15 14 14 15 15 17 18 19 22 23 25 27 28 30 32 33 34 35 36 38 39 40 42 44 48 47
10 5 4 2 4 7 15 27 30 29 40 44 45 44 44 39 34 36 33 29 25 22 19 16 13 12 13 12 13 16 18 21 22 23 24 26 28 30 33 34 36 38 40 43 45 46 48 49 52
2 2 7 2 0 6 15 34 39 39 56 60 55 56 52 42 39 43 40 35 31 27 23 19 16 14 13 12 13 16 18 20 21 23 24 27 30 32 35 37 39 41 43 44 47 50 52 53 58
3 7 3 8 7 3 20 19 10 10 47 42 62 57 54 53 49 49 49 42 36 31 26 22 18 16 13 12 14 16 17 20 21 22 25 28 30 32 34 36 38 40 43 46 49 50 51 49 49
5 3 2 4 7 8 9 16 16 5 20 39 46 57 59 55 49 47 51 48 41 35 31 26 21 17 14 11 12 13 14 16 18 22 25 26 28 30 32 34 36 39 40 41 44 45 46 45 45
7 5 6 2 3 9 2 9 5 4 18 20 37 53 60 60 57 56 56 50 43 40 34 29 25 20 15 11 9 10 14 17 19 21 23 24 26 28 31 33 35 36 39 40 40 41 41 40 39
16 7 5 4 1 6 2 7 11 5 6 4 6 27 50 60 59 57 56 53 49 43 40 35 30 24 19 12 7 7 11 15 17 18 20 23 26 28 31 33 34 36 37 38 38 38 37 37 35
4 5 1 3 4 5 1 9 23 21 20 15 22 17 31 53 59 57 57 60 55 51 45 40 34 28 23 15 8 4 8 13 15 17 18 21 23 26 29 31 33 35 36 38 38 38 37 36 35
5 4 4 7 5 6 3 13 8 4 12 18 14 14 16 41 54 59 65 63 60 53 47 42 37 33 27 19 12 4 5 12 16 18 19 21 23 26 28 31 32 33 34 35 36 36 37 35 35
8 7 4 11 4 5 8 12 21 15 11 19 14 12 10 25 47 56 66 65 60 54 49 43 38 34 30 22 14 7 5 11 17 21 22 22 23 25 28 30 32 33 34 35 35 36 37 36 36
2 9 5 1 7 10 10 12 17 11 11 18 21 13 10 15 36 54 66 68 60 53 47 43 39 36 32 28 20 13 9 12 17 22 25 25 26 27 29 31 32 33 34 35 36 37 37 36 36
9 7 1 4 5 7 9 9 8 9 5 9 16 14 8 13 26 57 67 71 63 55 50 45 42 39 36 32 26 19 15 14 19 23 27 29 29 29 30 32 33 34 36 36 37 37 38 38 37
5 7 15 9 10 3 7 19 9 11 15 10 10 17 14 13 20 38 66 71 69 60 53 50 42 37 32 33 33 27 22 20 21 25 30 31 31 31 31 34 35 36 36 36 37 38 38 38 38
Wind_Direction_850mb
327 327 333 319 226 241 192 134 0 126 131 31 138 152 107 47 23 65 149 80 15 356 0 13 25 46 334 324 327 258 246 227 210 231 296 297 300 299 300 296 285 277 274 274 286 302 312 280 281
327 329 326 279 248 223 169 130 167 61 114 110 84 82 56 85 73 108 149 134 70 0 1 355 342 325 304 287 277 273 282 253 251 269 276 285 273 268 274 283 291 290 289 286 272 271 291 293 274
319 331 261 249 200 246 219 130 129 118 117 124 105 66 74 89 85 128 170 173 343 347 350 351 346 336 336 331 316 302 265 267 279 259 262 268 270 270 269 271 278 284 287 287 291 283 276 289 272
306 351 170 249 236 84 330 133 134 131 91 65 108 77 86 101 150 142 148 91 349 333 330 325 319 314 312 306 305 306 301 271 263 271 273 268 267 269 271 274 280 279 274 279 277 277 286 273 276
217 231 190 231 175 88 69 140 136 117 106 92 35 120 101 124 138 117 85 33 346 332 325 318 314 309 305 302 299 295 291 287 279 269 265 268 271 269 269 270 270 274 279 277 273 261 263 265 264
182 228 214 215 167 131 115 155 176 87 93 98 93 109 115 147 139 132 84 23 357 344 332 326 318 311 305 299 296 293 290 284 280 276 272 270 265 268 273 274 277 278 278 280 278 272 264 263 261
221 217 234 238 190 166 141 128 159 91 110 69 108 115 141 114 162 152 104 12 353 346 339 331 326 323 316 307 301 296 293 289 285 279 275 275 273 270 267 272 277 282 285 283 276 273 269 266 263
205 230 224 228 204 187 134 96 102 78 111 118 132 158 163 209 169 172 129 329 336 331 331 330 329 326 322 317 310 305 298 293 289 286 282 278 274 274 271 269 273 277 283 286 289 276 270 269 268
153 227 234 224 215 154 144 150 122 119 119 137 180 139 167 177 163 162 188 308 318 324 330 336 336 335 332 328 322 316 309 301 294 291 288 282 280 276 272 271 271 274 276 280 285 288 282 271 270
221 230 237 23 82 140 132 106 144 148 154 110 134 171 157 164 168 183 184 241 286 310 323 333 339 342 344 343 341 337 329 319 310 304 295 290 288 286 284 283 279 274 274 278 277 276 280 280 278
29 291 55 39 30 128 165 132 151 162 209 210 212 167 164 151 172 199 199 228 270 306 329 336 342 349 353 358 6 10 14 12 1 349 338 326 311 300 291 287 283 284 284 279 270 270 274 275 278
119 59 53 36 34 124 139 132 131 174 167 196 156 159 156 162 184 208 250 272 290 318 335 1 15 19 23 30 35 37 38 39 38 37 32 26 13 360 342 328 317 308 302 297 293 287 279 273 275
80 106 65 77 76 84 126 98 146 162 158 158 165 169 174 185 197 213 217 238 255 56 73 70 66 61 56 52 55 53 52 50 50 47 46 43 41 38 33 25 14 3 352 339 322 307 297 292 286
101 105 103 60 61 72 86 107 180 187 171 171 177 180 175 181 189 185 171 161 147 119 100 86 80 74 67 65 62 59 56 53 50 47 45 42 40 40 39 38 35 30 23 16 7 356 345 331 312
130 108 119 56 33 84 120 198 223 174 172 175 179 182 186 191 184 181 173 166 156 143 121 107 94 83 79 75 70 67 63 60 58 55 52 50 48 46 42 38 34 28 22 16 11 7 3 357 348
113 159 201 77 349 92 221 249 160 174 179 190 194 195 197 198 193 187 177 165 152 137 128 119 107 95 83 76 71 67 63 59 56 53 50 47 45 44 43 41 39 36 33 29 27 22 17 9 357
94 243 230 175 40 319 233 278 131 184 197 207 207 207 207 207 203 196 183 171 161 149 137 124 114 103 91 80 73 68 63 60 56 52 48 44 41 39 37 36 34 31 30 27 24 22 20 20 19
168 193 211 263 32 268 248 262 224 202 210 219 216 212 212 213 207 201 191 181 171 161 147 135 123 112 98 85 76 70 63 59 55 50 46 40 37 34 33 31 30 29 28 27 26 23 21 18 17
107 138 253 190 40 291 262 271 266 226 221 226 222 217 216 215 206 202 197 189 182 173 163 150 134 121 103 91 78 68 60 56 50 47 41 36 33 30 27 25 24 23 22 21 20 20 18 15 17
110 228 254 193 15 268 296 280 269 231 229 225 222 220 216 211 206 206 202 196 190 184 177 166 154 139 123 109 89 69 57 50 45 42 37 33 29 25 23 21 21 20 19 18 17 18 19 18 17
36 290 287 305 314 230 300 268 258 235 236 234 230 228 220 211 206 207 205 201 196 191 185 177 168 155 139 115 84 65 52 45 42 38 33 30 26 23 21 19 19 18 17 17 16 16 17 18 18
172 70 350 318 297 307 343 297 281 243 246 230 235 224 219 211 209 208 206 203 200 196 192 187 180 170 151 121 92 74 62 51 44 38 33 29 25 23 20 18 17 16 16 15 15 13 13 13 14
95 139 120 117 273 306 128 266 257 253 277 257 235 227 220 212 207 206 209 207 202 201 198 195 190 182 168 143 109 71 51 42 37 34 29 24 22 19 16 14 13 13 14 13 12 12 12 11 11
137 123 105 102 312 248 46 276 294 224 230 298 331 236 223 212 206 208 210 208 205 205 203 202 198 192 184 168 137 83 48 35 31 25 20 16 13 11 10 9 9 9 8 8 7 7 6 6 6
206 190 254 252 210 277 69 247 268 276 293 293 299 284 229 214 205 203 203 206 206 208 207 205 202 199 195 187 173 115 45 29 20 12 8 7 4 3 2 3 3 3 2 2 1 0 359 359 359
167 258 211 243 255 327 127 245 256 66 325 300 291 285 245 213 207 204 207 209 210 209 209 207 206 204 202 198 194 182 25 13 5 359 354 351 351 352 353 354 355 355 353 353 352 352 351 350 350
151 224 20 106 88 270 245 265 272 99 43 18 337 285 266 218 210 206 208 210 212 210 210 209 207 208 207 207 211 226 320 348 349 344 337 334 334 337 340 343 344 344 344 344 343 343 342 342 342
255 137 137 246 219 241 239 272 255 336 12 0 9 335 285 241 212 209 210 211 212 211 211 209 210 212 212 216 222 237 275 317 331 333 325 318 317 321 327 332 334 335 335 335 335 335 335 334 334
156 189 127 324 256 250 284 252 187 224 275 328 345 334 314 264 234 214 211 212 211 209 209 209 211 214 217 222 231 244 264 292 313 322 319 309 303 306 314 321 323 326 327 328 328 329 328 327 328
320 207 190 220 199 253 340 270 176 249 270 257 325 355 344 307 262 230 215 212 211 208 209 210 211 217 222 228 235 245 258 275 298 312 315 305 295 294 302 311 314 318 320 321 321 322 321 320 321